Regional Weather Roundup
Issued by NWS Green Bay, WI

Home | Current Version | Previous Version | Graphics & Text | Print | Product List | Glossary Off
Versions: 1 2 3 4 5 6 7 8 9 10 11 12 13 14 15 16 17 18 19 20 21 22 23 24 25 26 27 28 29 30 31 32 33 34 35 36 37 38 39 40 41 42 43 44 45 46 47 48 49 50

000
ASUS43 KGRB 272310
RWRGRB

NORTH-CENTRAL AND NORTHEAST WISCONSIN REGIONAL WEATHER ROUNDUP
NATIONAL WEATHER SERVICE GREEN BAY WI
600 PM CDT MON APR 27 2015

WIZ005-009-010>012-018-019-280000-
NORTH CENTRAL WISCONSIN

CITY           SKY/WX    TMP DP  RH WIND       PRES   REMARKS
IRONWOOD       SUNNY     57  28  33 NE8       30.14S
MANITOWISH WTR SUNNY     58  28  31 NE9       30.15S
ARBOR VITAE    SUNNY     59  24  25 NE8G18    30.14S
EAGLE RIVER    SUNNY     58  22  25 N14       30.14R
LAND O LAKES   SUNNY     57  25  29 N7G17     30.15S
RHINELANDER    SUNNY     60  25  26 N10       30.13S
PHILLIPS       SUNNY     61  29  29 N12       30.14S
ANTIGO         SUNNY     61  30  30 N15       30.10S
TOMAHAWK       SUNNY     61  27  27 N5G16     30.13S
MERRILL        SUNNY     64  31  29 N12G20    30.10S
$$

WIZ013-073-280000-
NORTHEAST WISCONSIN

CITY           SKY/WX    TMP DP  RH WIND       PRES   REMARKS
IRON MOUNTAIN  SUNNY     62  29  28 NW15      30.09S
MARINETTE      SUNNY     52  34  50 E10       30.11S
OCONTO         SUNNY     54  34  46 E9        30.10S
$$

WIZ017-030-035>037-045-280000-
CENTRAL WISCONSIN

CITY           SKY/WX    TMP DP  RH WIND       PRES   REMARKS
MEDFORD        SUNNY     63  30  29 N12G18    30.11S
WAUSAU         SUNNY     66  28  24 N12G23    30.07F
MOSINEE        SUNNY     64  27  24 N12       30.10S
MARSHFIELD     SUNNY     67  29  24 N10       30.09F
WISC RAPIDS    SUNNY     68  27  21 N9        30.09F
STEVENS POINT  SUNNY     64  28  25 NW12G17   30.08F
WAUPACA        SUNNY     69  23  17 N7        30.06S
SHAWANO        SUNNY     64  35  33 SE9       30.08S
CLINTONVILLE   SUNNY     64  32  29 E9        30.06S
$$

WIZ038-039-048-051-280000-
FOX VALLEY

CITY           SKY/WX    TMP DP  RH WIND       PRES   REMARKS
NWS GREEN BAY  SUNNY     60  35  39 E9        30.09F
APPLETON       MOSUNNY   63  30  29 VRB7      30.08S
OSHKOSH        SUNNY     61  34  36 E8        30.08S
FOND DU LAC    SUNNY     62  31  31 E6        30.08F
$$

WIZ022-050-052-280000-
EAST CENTRAL WISCONSIN

CITY           SKY/WX    TMP DP  RH WIND       PRES   REMARKS
STURGEON BAY   SUNNY     48  30  49 E10       30.14S
MANITOWOC      SUNNY     47  35  63 E10       30.12S
SHEBOYGAN      SUNNY     49  33  54 NE12      30.12S
$$

LMZ563-521-522-541>543-280000-
LAKESHORE

STATION/POSITION TIME  TEMP    WIND        PRES    VSBY  WAVE
                       AIR SEA DIR/SP/G                  HT/PER
                 (UTC) (F)     (DEG/KT/KT) (MB)    (MI)  (FT/S)
SHEBOYGAN LKSHOR 2300   43      40/  3/  4 1020.9S
KEWAUNEE LKSHORE 2300   44     110/  1/  4 1019.2F
NORTHPORT PIER   2300   45     140/  4/  6 1019.6S
SISTER BAY LKSHO 2200   53     150/  8/ 11   N/A
CHAMBERS ISLAND  2300   48      60/ 12/ 16 1019.6R
MENOMINEE LKSHOR 2300   48      40/  5/  6 1020.1F
$$



USA.gov is the U.S. government's official web portal to all federal, state and local government web resources and services.